Location: Banff
(51.1670°N, 115.5670°W)
Time: 22:09:32
(UTC-06:00)

Daily predictions for brighter satellites

Satellite Brightness Start Highest point End
(mag) Time Altitude Azimuth Time Altitude Azimuth Time Altitude Azimuth
Meteor 1-24 Rocket 4.0 22:39:01 10° S 22:44:57 62° E 22:50:53 10° NNE
IGS 5A 4.3 22:42:10 10° SE 22:46:01 38° ENE 22:49:54 10° N
Cosmos 1269 Rocket 4.4 22:41:19 10° S 22:46:22 46° ESE 22:51:27 10° NE
Resurs 01 Rocket 4.2 22:46:21 10° SW 22:49:26 18° W 22:52:33 10° NW
Cosmos 1331 Rocket 4.2 22:44:31 10° NNW 22:49:42 67° ENE 22:54:54 10° SE
Cosmos 1844 Rocket 3.3 22:45:12 10° S 22:50:22 38° ESE 22:55:32 10° NE
Meteor 2-5 Rocket 4.0 22:45:00 10° SSW 22:50:59 87° WNW 22:56:55 10° NNE
Cosmos 2084 3.5 22:47:39 10° NW 22:51:29 60° SW 22:55:16 10° SSE
Landsat 7 4.1 22:46:51 10° SSE 22:51:32 60° ENE 22:56:14 10° N
Cosmos 1953 Rocket 3.5 22:50:00 10° S 22:54:20 82° E 22:58:46 10° NNE
SL-08 RB Rocket 4.4 22:50:13 10° S 22:54:47 54° W 22:59:24 10° NNW
Cosmos 1908 3.2 22:54:37 10° N 22:58:29 76° ENE 23:02:21 10° SSE
Cosmos 1758 Rocket 3.8 22:55:43 10° SSW 23:00:10 74° WNW 23:04:37 10° N
NOSS 5 (C) 4.2 22:58:29 10° SW 23:01:59 75° SE 23:05:01 10° NE
USA 238 DEB 3.9 22:56:28 10° NW 23:03:37 84° SW 23:10:52 10° SE
USA 238 3.9 22:56:35 10° NW 23:03:43 84° SW 23:10:58 10° SE
Meteor 2-1 Rocket 4.4 22:59:07 10° NNW 23:05:05 84° ENE 23:11:01 10° SSE
Cosmos 2082 Rocket 3.7 23:00:28 10° NNW 23:05:25 29° NE 23:10:21 10° ESE
NOSS 2-3 (D) 4.2 23:01:03 10° SW 23:05:49 79° NW 23:11:39 10° NE
CZ-2C R/B 3.8 23:00:18 10° SE 23:05:55 52° ENE 23:11:30 10° N
Iridium 81 3.8 23:04:06 10° S 23:06:27 59° E 23:09:18 10° N
Helios 1A 3.1 23:04:00 10° SSE 23:08:11 82° WSW 23:12:26 10° NNW
ATLAS 3B R/B 2.7 23:02:49 10° NW 23:09:34 86° NE 23:16:09 10° SE
Terra 2.1 23:06:12 10° SSE 23:10:53 61° ENE 23:15:36 10° N
Cosmos 1833 Rocket 3.9 23:09:51 10° NNW 23:14:58 34° NE 23:20:03 10° ESE
Cosmos 1302 Rocket 4.3 23:10:08 10° NNW 23:15:25 64° ENE 23:20:24 11° SE
Cosmos 1315 Rocket 3.6 23:11:50 10° SSW 23:15:49 54° WNW 23:19:52 10° N
GENESIS II 4.3 23:12:11 10° SSW 23:16:00 54° SE 23:19:52 10° NE
NOSS 3-2 (A) 4.1 23:10:25 10° NW 23:17:44 85° NE 23:25:51 10° SE
Cosmos 2263 Rocket 3.6 23:15:25 10° WSW 23:20:48 42° NW 23:26:12 10° NNE
Helios 1B rocket 2.7 23:17:13 10° NNE 23:21:16 52° E 23:25:16 10° S
Spot 1 4.2 23:20:14 11° SSE 23:24:21 81° ENE 23:28:59 10° NNW
Cosmos 1340 2.6 23:21:12 10° NNW 23:25:02 89° SW 23:28:30 12° S
Cosmos 1745 Rocket 4.1 23:18:52 10° N 23:25:16 82° E 23:31:27 11° SSE
Cosmos 2221 3.1 23:22:14 10° N 23:26:26 45° ENE 23:30:02 13° SE
Meteor 1-29 3.3 23:25:51 10° NNE 23:29:10 45° E 23:32:01 13° S
CZ-2C R/B 3.4 23:26:47 10° NNE 23:31:50 36° E 23:36:06 13° SSE
ERS-1 Rocket 4.3 23:28:27 10° SSW 23:33:03 35° W 23:37:41 10° NNW
Cosmos 1626 3.7 23:31:05 13° SE 23:33:20 21° E 23:36:14 10° NE
Cosmos 1455 4.2 23:31:21 10° NNE 23:33:55 17° ENE 23:36:27 10° ESE
Cosmos 1300 2.8 23:30:17 10° N 23:34:06 63° ENE 23:37:10 15° SSE
Cosmos 921 Rocket 4.0 23:30:03 10° NNW 23:34:17 44° WSW 23:38:33 10° S
SPOT 5 3.7 23:29:52 10° S 23:34:46 51° W 23:39:56 10° NNW
ATLAS 2AS CENTAUR R/B 3.1 23:27:50 10° SSW 23:35:39 67° SE 23:43:42 10° NE
Cosmos 2285 Rocket 4.2 23:29:50 10° SSW 23:36:11 76° WNW 23:42:31 10° NNE
Cosmos 1674 3.2 23:36:47 10° SSW 23:40:33 60° WNW 23:44:22 10° N
NOSS 3-2 (C) 4.1 23:33:36 10° NW 23:40:58 86° NE 23:48:40 12° SE
Timation 1 Rocket 4.3 23:35:15 10° SSW 23:41:10 71° ESE 23:47:09 10° NE
BREEZE-M R/B 4.2 23:34:08 10° WNW 23:41:21 73° SSW 23:47:17 10° ESE
Meteor 1-21 Rocket 4.4 23:38:42 10° S 23:44:31 66° E 23:50:17 10° NNE
Lacrosse 5 1.8 23:39:45 10° SW 23:44:46 66° SE 23:49:48 10° ENE
CARTOSAT-1 4.3 23:50:26 11° S 23:54:22 48° W 23:58:35 10° NNW
